Hauptseite
METAR-TAF:

METAR-TAF

Flughäfen :

Fliegerhorst Meppen

Meppen, Deutschland

Breite: 52-43-24N, Länge: 007-19-35E, Höhe: 21 m

Beobachtung

Neuester Wetterbericht von vor 17 Minuten, um 10:20 UTC
Wind 10 kt aus Süd
Temperatur 17°C
Luftfeuchtigkeit 45%
Luftdruck 1008 hPa
Sichtweite 10 km oder mehr
Leicht bewölkt in der Höhe von 4000 ft
Durchbrochene Bewölkung in der Höhe von 22000 ft

METAR: ETWM 251020Z 18010KT 9999 FEW040 BKN220 17/05 Q1008 BLU+

Zeit: 12:37 (10:37 UTC)


TAF: fehlend

Wetterbeobachtungen und Prognosen von mehr als 4000 Flughäfen (METAR und TAF Bericht).

Die verfügbaren Stationen werden durch gelbe und rote Markierungen auf der Karte dargestellt.

Führen Sie die Maus auf sie, um den Namen der Station zu sehen.

Darauf klicken, um die Beobachtung von Wetterbeobachtungen und Prognosen zu sehen.

Um die Karte zu ändern : klicken Sie auf den grünen Tasten mit einem schwarzen Kreuz Zum Vergrößern, auf den grünen Button mit einem Gedankenstrich zu verkleinern, oder auf die grünen Pfeile für benachbarte Karten.


METAR-TAF: